Wind_Speed
35 35 35 35 36 38 40 41 40 38 38 36 36 38 40 40 39 38 39 39 39 39 39 39 39 40 40 39 39 40 40 40 40 40 40 41 41 41 42 43 44 45 46
38 38 38 38 38 39 41 43 43 41 40 39 38 40 40 39 39 39 40 40 40 40 40 40 40 41 40 40 40 40 41 41 42 42 43 44 44 45 46 46 47 48 48
43 43 42 42 41 41 42 44 45 46 44 42 42 41 40 40 40 40 40 40 40 40 39 40 40 40 40 40 40 41 41 42 44 45 46 47 47 47 47 48 49 50 50
48 48 47 47 46 45 45 46 47 49 48 46 44 43 42 42 41 41 40 40 39 38 38 39 40 40 40 40 41 42 42 43 45 47 48 49 50 50 49 48 50 50 51
53 54 53 52 51 50 48 48 49 50 50 48 47 46 44 43 43 42 40 39 39 38 38 39 39 39 40 41 42 43 44 45 46 48 49 50 51 51 50 49 50 51 53
59 58 59 58 56 55 53 51 50 50 50 50 49 48 46 44 43 42 41 40 40 39 38 39 39 39 39 40 42 44 45 46 48 49 50 51 51 51 52 52 51 52 52
64 62 61 61 61 59 57 56 53 50 49 50 49 49 48 45 44 43 42 41 39 39 38 38 38 38 39 41 42 44 46 47 48 49 50 51 51 52 54 55 54 53 53
63 63 61 60 60 60 60 58 55 51 49 49 49 49 48 46 45 44 42 40 39 38 38 38 38 39 40 41 43 44 46 47 47 48 49 50 52 53 55 56 56 55 56
58 59 59 58 58 60 60 59 57 53 51 49 49 49 47 46 45 44 42 40 39 39 39 38 38 39 40 41 43 44 45 46 47 48 49 51 53 54 55 56 58 61 63
52 52 52 54 54 56 58 59 57 55 51 49 49 48 46 46 45 43 41 40 40 40 39 38 38 38 40 41 42 44 45 47 48 49 51 53 55 55 56 59 62 65 67
48 46 46 48 50 52 55 56 56 55 51 49 47 46 46 45 44 42 41 40 40 39 38 37 37 38 40 41 43 44 46 48 50 52 53 55 55 57 60 62 64 66 68
44 43 41 41 44 47 50 52 53 52 49 46 44 44 44 44 42 40 40 39 39 38 37 37 38 39 40 42 44 46 48 50 52 54 56 56 58 60 63 64 65 67 68
40 40 38 37 39 41 45 49 50 48 45 43 42 42 42 41 39 38 38 38 38 38 37 37 39 40 41 43 46 48 51 52 54 56 57 59 61 63 64 66 67 68 69
36 36 35 34 35 38 42 45 45 42 41 40 41 40 39 38 36 36 36 36 37 37 37 38 39 41 43 45 48 50 52 54 56 58 60 62 63 64 65 66 67 68 71
28 28 28 29 31 34 37 40 39 38 38 39 38 37 35 34 34 34 34 35 35 36 37 38 41 43 46 47 49 50 53 55 58 60 61 62 64 64 65 66 68 72 76
15 15 17 20 25 29 32 35 35 36 35 34 33 31 31 31 31 32 33 34 35 36 37 41 43 45 46 48 49 51 55 57 59 60 61 62 63 63 65 68 72 77 82
1 5 10 16 22 26 29 31 31 30 28 27 27 26 26 27 29 31 33 33 34 37 40 42 44 45 46 48 51 54 56 58 59 60 61 61 62 64 68 72 77 83 89
10 12 15 18 22 24 25 25 24 23 22 21 22 23 25 27 29 30 30 33 36 38 41 43 44 45 47 50 53 55 56 57 59 59 60 62 64 68 72 76 81 87 93
17 17 18 20 20 21 21 20 19 19 19 20 21 23 26 26 27 29 32 35 37 39 41 42 43 46 48 51 53 54 55 57 57 59 61 65 68 72 77 82 87 91 91
18 18 18 18 18 18 17 16 16 17 18 20 22 25 26 27 28 31 33 35 36 38 39 41 44 47 49 51 52 54 54 55 57 61 65 69 73 78 83 87 89 88 82
16 16 15 15 15 14 13 13 14 16 18 19 21 23 24 26 27 29 31 32 34 37 40 43 45 47 49 51 52 52 54 56 59 63 68 72 77 82 86 88 86 78 67
10 10 11 10 10 11 11 11 13 15 16 17 18 20 21 23 25 27 29 32 35 38 41 43 45 47 49 50 51 53 56 59 63 67 72 77 81 85 86 83 74 63 53
7 6 6 7 7 7 8 9 10 11 12 13 14 17 19 21 24 28 31 34 37 39 41 43 45 46 48 49 52 56 60 64 68 73 77 81 84 84 79 70 59 48 41
6 6 5 5 4 3 2 3 4 6 8 11 13 16 20 23 27 30 33 35 37 39 41 43 44 46 49 52 56 60 65 69 73 77 80 83 82 76 65 54 44 37 35
4 4 3 3 2 1 1 3 5 8 10 13 16 19 23 26 29 31 33 35 37 39 40 42 45 48 52 56 61 65 69 73 76 79 81 78 71 59 48 39 33 32 34
1 1 1 0 1 2 3 6 8 10 13 16 20 23 25 28 30 32 34 36 37 38 41 45 49 53 57 61 66 71 74 78 80 80 76 66 54 42 33 28 28 31 33
Wind_Direction
256 256 255 253 251 251 253 255 257 257 259 262 263 264 266 267 268 270 273 276 278 279 281 283 283 282 280 279 280 281 282 281 281 282 282 284 285 286 287 289 289 290 291
258 258 257 255 254 252 251 253 255 256 256 259 261 262 264 267 270 272 274 276 278 279 281 282 283 282 280 278 279 281 282 282 281 282 283 283 285 286 288 289 289 290 290
257 258 258 258 257 254 252 251 252 253 254 255 257 261 265 267 269 271 274 275 277 279 281 283 283 282 279 278 279 281 282 282 282 283 284 285 286 286 287 288 290 291 292
258 258 258 258 258 257 255 252 251 251 252 252 255 259 262 264 266 268 271 275 278 280 281 281 281 280 278 278 279 281 282 283 284 285 286 288 288 288 289 290 291 292 293
259 258 257 257 257 257 256 254 253 252 251 251 252 254 257 260 263 266 270 272 275 277 279 280 280 280 279 279 281 283 284 285 286 287 288 289 289 290 291 292 293 293 294
261 259 257 256 255 255 255 254 253 253 251 251 250 252 254 257 260 263 266 269 272 275 278 279 281 281 281 282 283 285 286 287 288 290 290 291 291 292 292 292 292 292 293
267 262 258 256 254 253 252 252 252 251 250 250 249 250 252 254 257 260 263 266 269 273 276 279 281 282 283 284 285 287 288 290 291 292 293 293 293 294 294 294 294 293 294
271 267 262 256 252 250 249 249 250 249 248 247 247 247 249 251 253 257 260 264 267 271 275 279 281 284 285 287 288 289 291 292 293 294 295 295 295 295 295 295 295 295 296
272 268 264 259 252 248 246 245 245 245 244 244 244 244 246 248 251 254 257 261 265 269 273 279 283 286 288 289 290 291 292 294 295 295 295 295 296 296 296 296 298 298 298
276 270 264 258 252 246 242 241 241 240 241 241 241 242 244 246 248 252 256 259 263 268 274 280 284 287 289 291 292 293 294 295 296 296 296 296 297 297 298 299 300 301 301
275 270 264 256 249 243 238 236 235 236 237 238 239 240 242 244 247 251 254 258 263 268 274 280 284 287 289 291 292 294 296 296 296 296 297 298 299 300 301 301 302 302 303
272 268 261 253 246 239 233 230 229 230 232 234 235 237 240 243 247 250 255 259 264 270 276 281 284 287 289 292 293 294 296 296 296 297 298 300 301 302 302 303 303 304 305
269 264 258 249 242 235 227 223 222 224 226 229 231 234 238 242 246 251 256 261 266 272 277 282 285 287 290 292 294 294 295 295 296 298 300 301 302 303 304 305 306 306 307
271 264 255 245 238 230 221 215 215 217 219 223 227 232 237 242 247 252 258 263 268 274 279 284 287 289 290 291 292 293 294 296 298 300 301 303 304 305 306 307 307 308 308
272 262 250 240 231 222 213 206 205 208 213 219 224 230 236 242 248 255 260 264 270 276 281 285 287 288 288 290 292 293 295 297 299 301 302 304 305 306 307 308 308 309 309
270 254 237 224 213 205 199 196 198 203 210 216 223 230 237 244 251 256 260 267 272 277 282 285 286 287 289 291 293 294 296 298 300 302 304 305 306 307 308 309 310 310 310
283 202 190 187 185 183 185 188 193 199 207 214 223 230 238 245 251 256 263 270 275 279 282 284 286 289 291 292 293 295 297 300 302 303 304 305 307 308 309 310 310 311 311
95 121 141 153 161 167 173 179 186 194 203 212 221 228 237 246 251 259 267 273 276 278 282 286 288 290 291 293 295 297 300 301 303 304 305 306 308 309 309 310 311 311 312
96 111 125 136 146 155 163 171 181 191 200 212 223 231 239 246 256 264 269 274 278 282 285 288 290 291 293 295 297 299 301 303 304 305 306 308 309 309 310 311 312 313 313
95 106 116 125 134 143 153 165 177 190 204 215 225 235 244 252 261 267 274 279 283 286 289 290 292 294 295 297 299 301 303 304 305 307 308 309 310 311 311 313 313 314 314
92 102 111 120 129 139 152 173 193 207 215 225 235 244 255 265 272 278 282 286 288 290 291 293 294 296 298 300 302 303 304 306 307 308 309 310 311 312 313 314 314 315 314
86 101 116 130 142 154 171 193 210 221 231 242 254 265 273 278 282 285 288 290 291 292 294 296 297 299 301 302 304 305 306 307 308 309 309 310 312 313 314 315 315 315 315
75 94 117 136 156 176 195 212 224 238 253 263 271 277 282 285 288 290 291 292 294 295 297 299 300 302 303 305 306 307 308 309 309 310 310 312 313 314 315 316 316 316 317
66 83 90 100 115 141 184 220 246 262 271 278 282 285 288 290 291 293 294 296 297 299 301 302 304 305 306 307 308 309 309 309 310 311 312 313 314 315 315 315 316 317 319
53 74 80 80 81 50 280 271 275 279 282 285 287 290 292 294 296 297 299 300 301 303 304 306 307 308 309 309 310 309 309 309 310 311 312 313 314 314 315 316 318 321 324
29 62 77 336 295 289 286 288 290 290 291 293 295 296 298 299 300 301 303 304 306 307 308 309 310 310 310 310 310 310 310 310 311 312 313 313 313 314 315 317 321 325 329
Height
5739 5741 5743 5745 5748 5750 5751 5752 5754 5757 5758 5760 5763 5763 5763 5764 5767 5769 5770 5770 5771 5771 5770 5769 5768 5767 5767 5766 5765 5764 5763 5763 5762 5762 5761 5760 5758 5756 5754 5751 5749 5747 5745
5729 5731 5733 5735 5738 5741 5743 5744 5745 5748 5751 5753 5755 5754 5755 5757 5759 5760 5761 5762 5762 5762 5762 5762 5761 5760 5759 5758 5757 5756 5755 5754 5753 5752 5751 5750 5750 5746 5743 5741 5738 5735 5732
5719 5720 5722 5725 5728 5730 5733 5735 5736 5738 5741 5744 5745 5746 5748 5750 5751 5752 5753 5753 5753 5754 5754 5754 5753 5752 5751 5750 5749 5748 5747 5745 5744 5742 5741 5739 5738 5736 5734 5730 5726 5722 5719
5707 5709 5711 5713 5716 5719 5722 5724 5726 5728 5730 5734 5736 5739 5741 5742 5743 5744 5744 5745 5746 5746 5746 5745 5745 5744 5743 5742 5741 5739 5738 5736 5735 5732 5730 5727 5725 5723 5721 5718 5714 5711 5707
5694 5695 5698 5700 5703 5706 5709 5712 5715 5717 5720 5724 5727 5730 5731 5734 5735 5736 5737 5737 5738 5738 5738 5737 5736 5736 5735 5733 5732 5730 5728 5726 5725 5722 5720 5716 5713 5710 5708 5706 5703 5698 5694
5678 5680 5683 5686 5689 5692 5695 5699 5702 5705 5709 5713 5716 5719 5722 5725 5726 5727 5728 5729 5730 5730 5730 5729 5728 5727 5726 5725 5723 5721 5719 5716 5714 5711 5708 5705 5701 5698 5695 5693 5690 5687 5682
5658 5661 5666 5670 5673 5677 5680 5684 5689 5693 5697 5701 5705 5709 5712 5716 5717 5718 5719 5721 5721 5722 5721 5721 5720 5719 5717 5716 5714 5711 5709 5706 5703 5700 5696 5692 5689 5685 5681 5677 5675 5672 5669
5636 5640 5645 5650 5655 5660 5664 5670 5675 5680 5685 5689 5693 5697 5702 5706 5708 5709 5711 5712 5713 5713 5713 5712 5712 5710 5709 5707 5705 5702 5700 5696 5693 5689 5685 5681 5677 5672 5668 5663 5659 5657 5655
5617 5620 5624 5630 5636 5642 5647 5654 5661 5666 5672 5676 5681 5686 5692 5695 5697 5700 5702 5704 5705 5705 5704 5704 5703 5702 5700 5698 5696 5693 5690 5686 5683 5679 5674 5670 5665 5660 5655 5650 5644 5640 5636
5598 5601 5605 5610 5616 5622 5629 5638 5645 5652 5658 5664 5670 5676 5681 5684 5688 5691 5693 5695 5696 5696 5696 5696 5695 5693 5692 5689 5687 5684 5680 5676 5672 5668 5663 5658 5653 5648 5642 5636 5630 5623 5617
5581 5583 5587 5592 5597 5604 5612 5621 5630 5638 5646 5654 5660 5666 5671 5675 5679 5682 5685 5687 5687 5687 5688 5687 5686 5685 5682 5680 5677 5674 5670 5666 5661 5656 5651 5646 5640 5635 5628 5622 5615 5607 5599
5567 5568 5571 5575 5580 5587 5595 5605 5615 5626 5636 5645 5651 5656 5661 5666 5670 5674 5676 5678 5678 5679 5679 5678 5677 5675 5673 5670 5667 5663 5659 5655 5649 5644 5639 5633 5627 5621 5614 5606 5599 5591 5582
5555 5555 5558 5562 5567 5573 5581 5592 5603 5616 5627 5636 5642 5647 5653 5658 5663 5666 5668 5670 5670 5671 5670 5670 5668 5666 5663 5660 5657 5653 5648 5643 5637 5632 5626 5619 5613 5606 5598 5590 5582 5573 5564
5543 5544 5547 5551 5556 5562 5571 5582 5596 5609 5619 5627 5633 5640 5646 5651 5655 5658 5660 5662 5663 5663 5662 5661 5659 5656 5653 5650 5646 5641 5636 5631 5625 5619 5612 5605 5598 5590 5582 5573 5564 5555 5546
5534 5535 5538 5543 5548 5556 5566 5578 5591 5602 5611 5619 5627 5634 5640 5645 5649 5651 5653 5654 5655 5654 5653 5651 5649 5646 5643 5639 5635 5630 5625 5619 5612 5605 5598 5590 5582 5574 5565 5557 5547 5538 5528
5528 5530 5533 5538 5545 5554 5565 5577 5588 5598 5607 5615 5623 5630 5635 5639 5642 5644 5646 5647 5647 5646 5644 5642 5640 5636 5632 5628 5624 5618 5612 5606 5599 5592 5584 5576 5567 5559 5550 5540 5530 5518 5506
5529 5530 5534 5540 5547 5557 5567 5577 5587 5596 5605 5613 5620 5626 5630 5633 5636 5638 5639 5639 5639 5637 5636 5633 5630 5626 5621 5617 5612 5606 5600 5593 5585 5578 5570 5562 5553 5544 5535 5525 5514 5500 5484
5536 5537 5541 5547 5554 5562 5571 5580 5589 5597 5604 5611 5616 5621 5626 5629 5631 5632 5632 5631 5630 5628 5626 5623 5619 5615 5611 5605 5600 5594 5587 5580 5572 5563 5555 5547 5538 5528 5519 5509 5497 5482 5466
5547 5548 5551 5556 5562 5569 5576 5584 5591 5597 5603 5609 5614 5617 5620 5622 5624 5625 5625 5623 5621 5619 5616 5613 5609 5604 5600 5594 5588 5581 5574 5567 5558 5549 5540 5531 5522 5512 5502 5491 5479 5464 5446
5557 5558 5561 5565 5570 5575 5581 5587 5592 5598 5602 5607 5610 5613 5615 5617 5617 5617 5617 5615 5613 5610 5607 5603 5598 5594 5588 5582 5576 5569 5562 5554 5546 5536 5526 5515 5505 5493 5481 5470 5457 5444 5429
5567 5568 5570 5573 5576 5581 5585 5589 5593 5597 5601 5604 5607 5609 5611 5611 5611 5611 5609 5607 5604 5601 5598 5593 5588 5582 5576 5570 5563 5555 5548 5540 5532 5522 5511 5499 5488 5475 5462 5449 5436 5423 5412
5575 5575 5576 5578 5581 5584 5588 5591 5594 5597 5599 5602 5604 5605 5606 5606 5605 5604 5602 5599 5596 5592 5588 5583 5577 5571 5564 5557 5550 5542 5534 5526 5517 5506 5495 5483 5470 5457 5443 5430 5418 5407 5398
5580 5581 5582 5583 5585 5588 5590 5593 5595 5597 5599 5600 5601 5602 5601 5601 5599 5597 5594 5591 5587 5583 5577 5572 5566 5559 5552 5545 5538 5529 5520 5510 5500 5488 5476 5464 5451 5438 5425 5413 5404 5395 5388
5584 5585 5585 5586 5588 5590 5592 5593 5595 5596 5597 5598 5598 5598 5597 5595 5593 5590 5586 5582 5577 5572 5567 5561 5555 5548 5540 5532 5524 5514 5504 5494 5482 5470 5457 5445 5432 5420 5410 5401 5393 5386 5380
5587 5587 5588 5588 5589 5591 5592 5593 5594 5595 5595 5594 5594 5592 5591 5588 5585 5581 5577 5572 5568 5562 5557 5550 5544 5536 5528 5519 5509 5499 5488 5477 5466 5454 5441 5428 5416 5406 5398 5391 5385 5380 5373
5588 5588 5589 5589 5590 5591 5591 5592 5592 5592 5591 5590 5588 5586 5583 5580 5576 5572 5568 5563 5558 5552 5546 5540 5532 5524 5515 5505 5494 5483 5470 5458 5446 5434 5423 5412 5402 5396 5390 5385 5380 5374 5367